Skip Page Navigation
NASA JPL Caltech
NASA Logo - Jet Propulsion Laboratory + View the NASA Portal
+ Center for Near-Earth Object Studies
JPL Home Earth Solar System Stars & Galaxies Technology
JPL Solar System Dynamics
BODIES ORBITS EPHEMERIDES TOOLS PHYSICAL DATA DISCOVERY FAQ SITE MAP
IMPORTANT: The SSD Announcement email list is now available. Major changes are coming in the near future, including possible hostname and/or URL changes. To be notified of such changes, subscribe to this email list.

Please visit this page for more details.


JPL Small-Body Database Browser
Search: [ help ]  
212030 (2005 CG30)
Classification: Main-belt Asteroid          SPK-ID: 2212030
Ephemeris | Orbit Diagram | Orbital Elements | Mission Design | Physical Parameters | Discovery Circumstances | Close-Approach Data ]

[ show orbit diagram ]
Orbital Elements at Epoch 2458600.5 (2019-Apr-27.0) TDB
Reference: JPL 13 (heliocentric ecliptic J2000)
 Element Value Uncertainty (1-sigma)   Units 
e .1850054949569067 5.2712e-08  
a 2.401350404966921 1.78e-08 au
q 1.957087384731047 1.2453e-07 au
i 2.624853505120796 4.7017e-06 deg
node 18.57279356205888 0.00014819 deg
peri 59.73278996733993 0.00014903 deg
M 343.3369724355705 1.7072e-05 deg
tp 2458663.411949646999
(2019-Jun-28.91194965)
6.4762e-05 TDB
period 1359.194887324491
3.72
1.5112e-05
4.137e-08
d
yr
n .2648626796328247 2.9449e-09 deg/d
Q 2.845613425202795 2.1093e-08 au
  Orbit Determination Parameters
   # obs. used (total)      223  
   data-arc span      7989 days (21.87 yr)  
   first obs. used      1996-10-31  
   last obs. used      2018-09-15  
   planetary ephem.      DE431  
   SB-pert. ephem.      SB431-N16  
   condition code      0  
   norm. resid. RMS      .59594  
   source      ORB  
   producer      Otto Matic  
   solution date      2018-Oct-03 12:12:36  

Additional Information
 Earth MOID = .973967 au 
 Jupiter MOID = 2.40882 au 
 T_jup = 3.501 
[ show covariance matrix ]

Ephemeris | Orbit Diagram | Orbital Elements | Mission Design | Physical Parameters | Discovery Circumstances | Close-Approach Data ]

Physical Parameter Table
Parameter Symbol Value Units Sigma Reference Notes
absolute magnitude H 17.2   n/a MPO454521  

212030 (2005 CG30)          Discovered 2005-Feb-01 by Spacewatch at Kitt Peak
Reference: 20090409/Numbers.arcLast Updated: 2009-04-10

[ show close-approach data ]
Alternate Designations
 2005 CG30 = 1996 UT3 
Ephemeris | Orbit Diagram | Orbital Elements | Mission Design | Physical Parameters | Discovery Circumstances | Close-Approach Data ]
ABOUT SSD CREDITS/AWARDS PRIVACY/COPYRIGHT GLOSSARY LINKS
FirstGov
(server date/time)  
NASA Home Page
Site Manager:   Ryan S. Park
Webmaster  Alan B. Chamberlin